This demonstration page uses our WeatherBlox Daily Observations layout. Learn more.

Hourly Observations for January 12, 2020

Temp ( °F °C ) Dew Point ( °F °C ) Humidity (%) Winds ( mph kmh ) Pressure ( in mb ) Visibility ( mi km ) Precip ( " mm )
12:15 am 00:15 Clear 20 -6.7 12 -11 72 72 SSE 6 9 30.12 1020 10 16.0934 0 0
12:35 am 00:35 Partly Cloudy 20 -6.7 12 -11.2 71 71 SSE 6 9 30.12 1020 10 16.0934 0 0
12:55 am 00:55 Partly Cloudy 20 -6.8 12 -11 72 72 SSE 6 9 30.12 1020 10 16.0934 0 0
1:15 am 01:15 Clear 20 -6.8 12 -11.1 72 72 SSE 6 9 30.11 1020 10 16.0934 0 0
1:35 am 01:35 Clear 20 -6.7 13 -10.7 74 74 SSE 6 9 30.1 1019 10 16.0934 0 0
1:55 am 01:55 Clear 20 -6.8 13 -10.6 75 75 SSE 7 11 30.09 1019 10 16.0934 0 0
2:15 am 02:15 Clear 20 -6.5 14 -10.2 75 75 SSE 9 15 30.09 1019 10 16.0934 0 0
2:35 am 02:35 Clear 21 -6.3 14 -10.1 75 75 SSE 9 15 30.09 1019 10 16.0934 0 0
2:55 am 02:55 Clear 21 -6 15 -9.6 76 76 S 9 15 30.08 1019 10 16.0934 0 0
3:15 am 03:15 Clear 21 -6 15 -9.3 78 78 S 10 17 30.07 1018 10 16.0934 0 0
3:35 am 03:35 Clear 21 -6.1 15 -9.2 79 79 S 5 7 30.07 1018 10 16.0934 0 0
3:55 am 03:55 Clear 21 -6.2 16 -9.1 80 80 S 7 11 30.08 1018 10 16.0934 0 0
4:15 am 04:15 Clear 21 -6 17 -8.5 83 83 SSE 12 19 30.06 1018 10 16.0934 0 0
4:35 am 04:35 Clear 21 -6.2 17 -8.6 83 83 S 12 19 30.09 1019 10 16.0934 0 0
4:55 am 04:55 Clear 20 -6.5 17 -8.6 85 85 S 7 11 30.08 1019 10 16.0934 0 0
5:15 am 05:15 Clear 20 -6.5 17 -8.5 86 86 S 9 15 30.09 1019 10 16.0934 0 0
5:35 am 05:35 Clear 20 -6.5 17 -8.5 86 86 S 7 11 30.09 1019 10 16.0934 0 0
5:55 am 05:55 Partly Cloudy 20 -6.5 17 -8.2 88 88 S 5 7 30.09 1019 10 16.0934 0 0
6:15 am 06:15 Cloudy 20 -6.5 17 -8.1 89 89 SSE 6 9 30.09 1019 10 16.0934 0 0
6:35 am 06:35 Cloudy 20 -6.5 18 -8 89 89 SSE 6 9 30.09 1019 10 16.0934 0 0
6:55 am 06:55 Cloudy 20 -6.5 18 -7.8 91 91 SSE 6 9 30.1 1019 10 16.0934 0 0
7:15 am 07:15 Cloudy 20 -6.5 18 -7.7 91 91 SSE 3 6 30.11 1020 10 16.0934 0 0
7:35 am 07:35 Cloudy 20 -6.4 19 -7.5 92 92 SSE 3 6 30.11 1020 10 16.0934 0 0
7:55 am 07:55 Cloudy 21 -6.3 19 -7.5 91 91 ESE 3 6 30.1 1019 10 16.0934 0 0
8:15 am 08:15 Cloudy 21 -5.9 19 -7 92 92 ESE 9 15 30.08 1019 10 16.0934 0 0
8:35 am 08:35 Cloudy 21 -5.9 19 -7 92 92 SE 9 15 30.07 1018 10 16.0934 0 0
8:55 am 08:55 Cloudy 22 -5.7 20 -6.8 92 92 ESE 7 11 30.07 1018 10 16.0934 0 0
9:15 am 09:15 Cloudy 22 -5.7 20 -6.7 93 93 ESE 7 11 30.07 1018 10 16.0934 0 0
9:35 am 09:35 Cloudy 22 -5.5 20 -6.5 93 93 ESE 5 7 30.08 1019 10 16.0934 0 0
9:55 am 09:55 Cloudy 23 -5 21 -6.1 92 92 Calm 30.08 1019 10 16.0934 0 0
10:15 am 10:15 Cloudy 25 -4.1 21 -6 87 87 SSE 6 9 30.08 1019 10 16.0934 0 0
10:35 am 10:35 Cloudy with Light Snow 25 -3.8 21 -6 85 85 S 6 9 30.09 1019 7 11.26538 0 0
10:55 am 10:55 Cloudy with Light Snow 25 -4 22 -5.8 87 87 S 6 9 30.09 1019 5 8.0467 0 0
11:15 am 11:15 Cloudy with Light Snow 25 -4 22 -5.5 89 89 S 7 11 30.08 1019 3 4.82802 0 0
11:35 am 11:35 Cloudy 25 -3.8 22 -5.4 89 89 SSE 6 9 30.07 1018 7 11.26538 0 0
11:55 am 11:55 Cloudy 25 -3.7 22 -5.3 89 89 S 8 13 30.06 1018 10 16.0934 0 0
12:15 pm 12:15 Cloudy 26 -3.6 22 -5.4 88 88 SSW 6 9 30.06 1018 10 16.0934 0 0
12:35 pm 12:35 Cloudy with Light Snow 26 -3.6 23 -5.2 89 89 S 6 9 30.05 1018 10 16.0934 0 0
12:55 pm 12:55 Cloudy 26 -3.6 22 -5.4 88 88 SSW 3 6 30.03 1017 10 16.0934 0 0
1:15 pm 13:15 Cloudy 26 -3.5 23 -5.2 88 88 SSW 3 6 30.03 1017 10 16.0934 0 0
1:35 pm 13:35 Cloudy 26 -3.1 23 -4.9 88 88 SSW 3 6 30.01 1016 10 16.0934 0 0
1:55 pm 13:55 Cloudy 27 -2.7 23 -4.8 86 86 SW 3 6 30.01 1016 10 16.0934 0 0
2:15 pm 14:15 Cloudy 28 -2 24 -4.5 83 83 S 3 6 30 1016 10 16.0934 0 0
2:35 pm 14:35 Mostly Cloudy 28 -2 23 -4.9 81 81 Calm 30 1016 10 16.0934 0 0
2:55 pm 14:55 Mostly Cloudy 30 -1.2 24 -4.5 79 79 SSW 3 6 30 1016 10 16.0934 0 0
3:15 pm 15:15 Mostly Cloudy 30 -1 24 -4.4 78 78 SW 3 6 29.99 1016 10 16.0934 0 0
3:35 pm 15:35 Partly Cloudy 31 -0.6 23 -4.8 74 74 Calm 30 1016 10 16.0934 0 0
3:55 pm 15:55 Sunny 31 -0.5 24 -4.6 74 74 SSW 7 11 30 1016 10 16.0934 0 0
4:15 pm 16:15 Sunny 31 -0.3 24 -4.6 73 73 SSW 7 11 30.01 1016 10 16.0934 0 0
4:35 pm 16:35 Sunny 31 -0.5 24 -4.7 74 74 WSW 3 6 30.02 1017 10 16.0934 0 0
4:55 pm 16:55 Sunny 31 -0.5 24 -4.7 74 74 S 5 7 30.02 1017 10 16.0934 0 0
5:15 pm 17:15 Sunny 31 -0.8 24 -4.7 75 75 S 3 6 30.01 1016 10 16.0934 0 0
5:35 pm 17:35 Clear 28 -2.3 23 -4.8 83 83 S 6 9 30.05 1017 10 16.0934 0 0
5:55 pm 17:55 Clear 27 -3 23 -5.1 86 86 S 6 9 30.06 1018 10 16.0934 0 0
6:15 pm 18:15 Clear 25 -4 22 -5.6 89 89 SSE 5 7 30.07 1018 10 16.0934 0 0
6:35 pm 18:35 Clear 23 -4.8 21 -6 91 91 SSE 7 11 30.09 1019 10 16.0934 0 0
6:55 pm 18:55 Clear 23 -4.8 22 -5.8 93 93 S 7 11 30.09 1019 10 16.0934 0 0
7:15 pm 19:15 Clear 22 -5.5 20 -6.5 93 93 SSE 8 13 30.09 1019 10 16.0934 0 0
7:35 pm 19:35 Clear 22 -5.5 21 -6.2 95 95 S 9 15 30.11 1020 10 16.0934 0 0
7:55 pm 19:55 Clear 22 -5.5 21 -6.1 96 96 SSE 8 13 30.11 1020 10 16.0934 0 0
8:15 pm 20:15 Clear 22 -5.8 21 -6.3 96 96 S 6 9 30.12 1020 10 16.0934 0 0
8:35 pm 20:35 Clear 21 -6.1 20 -6.5 97 97 S 8 13 30.12 1020 10 16.0934 0 0
8:55 pm 20:55 Clear 22 -5.6 21 -5.9 98 98 S 12 19 30.12 1020 10 16.0934 0 0
9:15 pm 21:15 Clear 22 -5.7 21 -6 98 98 S 8 13 30.12 1020 10 16.0934 0 0
9:35 pm 21:35 Clear 22 -5.3 22 -5.5 99 99 S 13 20 30.13 1020 10 16.0934 0 0
9:55 pm 21:55 Clear 22 -5.5 22 -5.6 99 99 S 13 20 30.13 1020 10 16.0934 0 0
10:15 pm 22:15 Clear 22 -5.5 22 -5.7 99 99 S 10 17 30.14 1021 10 16.0934 0 0
10:35 pm 22:35 Clear 22 -5.5 22 -5.6 99 99 S 10 17 30.13 1020 10 16.0934 0 0
10:55 pm 22:55 Clear 23 -5.2 22 -5.5 98 98 S 12 19 30.14 1021 10 16.0934 0 0
11:15 pm 23:15 Clear 23 -5 22 -5.3 98 98 S 12 19 30.14 1021 10 16.0934 0 0
11:35 pm 23:35 Clear 24 -4.4 23 -4.8 97 97 SSW 13 20 30.14 1021 10 16.0934 0 0
11:55 pm 23:55 Clear 24 -4.5 23 -5 96 96 SSW 9 15 30.14 1021 10 16.0934 0 0

Powered by AerisWeather